Regional Weather Roundup
Issued by NWS

Home | Current Version | Previous Version | Text Only | Print | Product List | Glossary On
Versions: 1 2 3 4 5 6 7 8 9 10 11 12 13 14 15 16 17 18 19 20 21 22 23 24 25 26 27 28 29 30 31 32 33 34 35 36 37 38 39 40 41 42 43 44 45 46 47 48 49 50
000
ASUS45 KABQ 210701
RWRNM
NEW MEXICO REGIONAL WEATHER ROUNDUP
NATIONAL WEATHER SERVICE ALBUQUERQUE NM
100 AM MDT SAT APR 21 2018

NOTE: "FAIR" MEANS FEW OR NO CLOUDS BELOW 12,000 FEET AGL WITH NO
       SIGNIFICANT WEATHER OR OBSTRUCTIONS TO VISION.

      THIS PRODUCT IS RELEASED AS TWO VERSIONS.  ONE VERSION NEAR
      THE TOP OF THE HOUR CONTAINING PRELIMINARY DATA FROM ALBUQUERQUE
      AND OTHER STATIONS.  A FINAL VERSION WITH ADDITIONAL DATA IS
      ISSUED ABOUT 10 MINUTES AFTER THE HOUR.

NMZ501-503-504-510>518-210800-
NORTHWEST PLATEAU/NORTHCENTRAL MOUNTAINS

CITY           SKY/WX    TMP DP  RH WIND       PRES   REMARKS
FARMINGTON     MOCLDY    43  27  53 W12       30.07R
LOS ALAMOS     FAIR      40  19  43 CALM      30.07S
SANTA FE       FAIR      37  28  70 SW8       30.05S WCI  31
TAOS           FAIR      34  21  59 E6        30.08S WCI  29
ANGEL FIRE     FAIR      27  21  80 S5        30.07S WCI  21

$$
NMZ402-403-502-505>509-210800-
WESTCENTRAL MOUNTAINS/SOUTHWEST MOUNTAINS

CITY           SKY/WX    TMP DP  RH WIND       PRES   REMARKS
GALLUP         FAIR      33  32  96 SW7       30.15R WCI  27
GRANTS         FAIR      37  28  71 N7        30.13R WCI  31
SILVER CITY    FAIR      48  22  36 NW21G26   30.11R

$$
NMZ407-409-411-412-210800-
SOUTHERN DESERTS

CITY           SKY/WX    TMP DP  RH WIND       PRES   REMARKS
DEMING         FAIR      54  23  30 W20G25    30.09R
LAS CRUCES     FAIR      55  19  24 W18G24    30.04R
ALAMOGORDO     FAIR      52  14  22 NW14G20   30.01R
T OR C         FAIR      50  29  44 N7G22     30.07R

$$
NMZ519>523-210800-
CENTRAL VALLEYS/CENTRAL HIGHLANDS

CITY           SKY/WX    TMP DP  RH WIND       PRES   REMARKS
ALBUQUERQUE    MOCLDY    44  34  67 SW6       30.08S
DOUBLE EAGLE   FAIR      35  27  71 W6        30.09R WCI  30
MORIARTY ARPT  CLOUDY    41  34  75 NW10      30.07F
CLINES CORNERS FAIR      37  27  67 NW24      30.04R WCI  26
BELEN          FAIR      43  32  65 NW3       30.09S
SOCORRO        FAIR      49  27  42 NW20G35   30.06R

$$
NMZ524>526-539-540-210800-
SOUTHCENTRAL MOUNTAINS

CITY           SKY/WX    TMP DP  RH WIND       PRES   REMARKS
RUIDOSO        FAIR      43  21  42 NW15G22   30.06S

$$
NMZ527>531-210800-
NORTHEAST HIGHLANDS/NORTHEAST PLAINS

CITY           SKY/WX    TMP DP  RH WIND       PRES   REMARKS
LAS VEGAS      FAIR      30  30 100 NE5       30.03S WCI  25
RATON          MOCLDY    32  30  92 NE7       30.03R WCI  26
CLAYTON        FOG       40  40 100 E10       30.03S VSB 1/4 WCI  33

$$
NMZ532>537-210800-
EASTCENTRAL PLAINS

CITY           SKY/WX    TMP DP  RH WIND       PRES   REMARKS
SANTA ROSA     CLOUDY    43  40  87 N10       30.00S
TUCUMCARI      CLOUDY    48  44  86 NE12      29.98R
CANNON AFB     NOT AVBL
CLOVIS AIRPORT CLOUDY    48  47  96 N20       29.95S

$$
NMZ028-029-538-210800-
SOUTHEAST PLAINS

CITY           SKY/WX    TMP DP  RH WIND       PRES   REMARKS
ROSWELL        FAIR      56   7  14 N10       29.94R
ARTESIA        FAIR      57   7  13 NW13      29.93R
CARLSBAD       FAIR      59  10  14 SW9       29.91R
HOBBS          FAIR      52  50  93 SW10      29.91F


$$



USA.gov is the U.S. government's official web portal to all federal, state and local government web resources and services.